This is the latest recevied weather packets stored in our database for station/object N5JXS. If no packets are shown the sender has not sent any weather packets the latest 10 day(s).
| Time | Temp. | Humidity | Pressure | Rain* | Wind** | Luminosity | Snow |
|---|---|---|---|---|---|---|---|
| 1787956052 | 18.33° C | 67% | 1027.6 hPa | 1.27 mm | - | 27 W/m² | - |
| 1787955747 | 18.33° C | 61% | 1027.5 hPa | 1.78 mm | - | 10 W/m² | - |
| 1787955444 | 18.89° C | 62% | 1027.7 hPa | 1.78 mm | - | 7 W/m² | - |
| 1787955142 | 18.89° C | 65% | 1027.2 hPa | 1.78 mm | - | 6 W/m² | - |
| 1787954838 | 18.89° C | 65% | 1027.1 hPa | 4.83 mm | - | 8 W/m² | - |
| 1787954534 | 21.11° C | 68% | 1026.8 hPa | 6.1 mm | - | 13 W/m² | - |
| 1787954234 | 24.44° C | 50% | 1027 hPa | 1.78 mm | - | 17 W/m² | - |
| 1787953928 | 24.44° C | 38% | 1026.5 hPa | 0 mm | - | 24 W/m² | - |
| 1787953627 | 24.44° C | 49% | 1026.7 hPa | 0 mm | - | 41 W/m² | - |
| 1787953327 | 25.56° C | 50% | 1026.6 hPa | 1.27 mm | - | 59 W/m² | - |
| 1787953025 | 26.67° C | 41% | 1026.8 hPa | 1.27 mm | - | 109 W/m² | - |
| 1787952724 | 26.67° C | 33% | 1026.7 hPa | 0 mm | - | 550 W/m² | - |
| 1787952419 | 25.56° C | 40% | 1027.1 hPa | 0 mm | - | 154 W/m² | - |
| 1787952116 | 24.44° C | 43% | 1027.2 hPa | 0 mm | - | 132 W/m² | - |
| 1787951814 | 24.44° C | 49% | 1027.2 hPa | 0 mm | - | 138 W/m² | - |
| 1787951510 | 24.44° C | 50% | 1027.3 hPa | 0 mm | - | 144 W/m² | - |
| 1787951206 | 26.67° C | 40% | 1027.5 hPa | 0 mm | - | 116 W/m² | - |
| 1787950902 | 28.33° C | 29% | 1027.6 hPa | 0 mm | - | 119 W/m² | - |
| 1787950597 | 27.22° C | 28% | 1028 hPa | 0 mm | - | 517 W/m² | - |
| 1787950293 | 28.89° C | 29% | 1027.5 hPa | 0 mm | - | 122 W/m² | - |
| 1787949989 | 30° C | 26% | 1027.3 hPa | 0 mm | - | 135 W/m² | - |
| 1787949684 | 30° C | 26% | 1027.6 hPa | 0 mm | - | 605 W/m² | - |
| 1787949384 | 28.89° C | 26% | 1027.8 hPa | 0 mm | - | 288 W/m² | - |
| 1787949078 | 28.89° C | 28% | 1027.8 hPa | 0 mm | - | 229 W/m² | - |
| 1787948775 | 28.33° C | 26% | 1027.6 hPa | 0 mm | - | 130 W/m² | - |
* Rain latest hour (hover to see other rain measurements)
** Current wind speed in m/s (hover to see current wind gust speed)